Вернуться в каталог

COSMOS 252 DEB

АктивенLEO
NORAD 3549·DEBRIS·🇷🇺 Russia

Запущен Nov 1, 1968 с Baikonur Cosmodrome

Loading…

Ближайшие Пролёты (ближайшие 24 часа)

TLE

СвежийSource: Space-Track

Эпоха: Sep 14, 2026, 00:38 UTC

1 03549U 68097B   26257.02705398  .00008358  00000-0  82122-3 0  9999
2 03549  62.2972 276.6570 0278942  11.8714 348.8759 14.67932604883070

Отслеживайте COSMOS 252 DEB в реальном времени с AllMySat

Download on the App Store